TimeCST,TemperatureF,Dew PointF,Humidity,Sea Level PressureIn,VisibilityMPH,Wind Direction,Wind SpeedMPH,Gust SpeedMPH,PrecipitationIn,Events,Conditions,WindDirDegrees,DateUTC
12:15 AM,5.0,-0.4,78,29.97,10.0,SSE,9.2,-,N/A,,Overcast,160,2013-02-06 06:15:00
12:35 AM,5.0,-0.4,78,29.97,10.0,South,9.2,-,N/A,,Mostly Cloudy,180,2013-02-06 06:35:00
1:15 AM,5.0,-0.4,78,29.97,10.0,South,12.7,-,N/A,,Mostly Cloudy,190,2013-02-06 07:15:00
1:35 AM,6.8,1.4,79,29.97,10.0,SSW,9.2,-,N/A,,Overcast,200,2013-02-06 07:35:00
1:55 AM,6.8,3.2,85,29.96,10.0,SSW,11.5,-,N/A,,Overcast,200,2013-02-06 07:55:00
2:15 AM,8.6,5.0,85,29.96,10.0,South,11.5,-,N/A,,Overcast,180,2013-02-06 08:15:00
2:35 AM,8.6,5.0,85,29.96,10.0,South,9.2,-,N/A,,Mostly Cloudy,170,2013-02-06 08:35:00
2:55 AM,8.6,5.0,85,29.95,10.0,SSE,4.6,-,N/A,,Partly Cloudy,150,2013-02-06 08:55:00
3:15 AM,8.6,5.0,85,29.94,10.0,SE,3.5,-,N/A,,Mostly Cloudy,140,2013-02-06 09:15:00
3:35 AM,8.6,5.0,85,29.94,10.0,ESE,3.5,-,N/A,,Scattered Clouds,120,2013-02-06 09:35:00
3:55 AM,8.6,5.0,85,29.93,10.0,SE,4.6,-,N/A,,Mostly Cloudy,130,2013-02-06 09:55:00
4:15 AM,8.6,6.8,92,29.93,10.0,SE,5.8,-,N/A,,Scattered Clouds,140,2013-02-06 10:15:00
4:35 AM,8.6,6.8,92,29.93,10.0,SE,4.6,-,N/A,,Clear,140,2013-02-06 10:35:00
4:55 AM,10.4,6.8,85,29.93,10.0,SE,5.8,-,N/A,,Clear,140,2013-02-06 10:55:00
5:15 AM,10.4,6.8,85,29.93,10.0,SE,5.8,-,N/A,,Clear,140,2013-02-06 11:15:00
5:35 AM,10.4,8.6,92,29.92,10.0,SSE,6.9,-,N/A,,Clear,150,2013-02-06 11:35:00
5:55 AM,12.2,8.6,85,29.93,7.0,SE,4.6,-,N/A,,Clear,140,2013-02-06 11:55:00
6:15 AM,12.2,8.6,85,29.93,3.0,SSE,4.6,-,N/A,Snow,Light Snow,150,2013-02-06 12:15:00
6:35 AM,12.2,8.6,85,29.94,2.0,SE,5.8,-,N/A,Snow,Light Snow,130,2013-02-06 12:35:00
6:55 AM,14.0,10.4,86,29.93,2.0,SE,6.9,-,0.02,Snow,Light Snow,140,2013-02-06 12:55:00
7:15 AM,14.0,10.4,86,29.93,1.8,SE,5.8,-,N/A,Snow,Light Snow,130,2013-02-06 13:15:00
7:35 AM,14.0,10.4,86,29.93,2.0,SE,6.9,-,0.01,Snow,Light Snow,130,2013-02-06 13:35:00
7:55 AM,14.0,10.4,86,29.93,1.5,SE,5.8,-,0.02,Snow,Light Snow,130,2013-02-06 13:55:00
8:15 AM,14.0,10.4,86,29.95,1.0,SE,4.6,-,0.01,Snow,Light Snow,130,2013-02-06 14:15:00
8:35 AM,14.0,10.4,86,29.95,0.8,SE,4.6,-,0.03,Snow,Light Snow,130,2013-02-06 14:35:00
8:55 AM,14.0,10.4,86,29.94,0.5,ESE,5.8,-,0.06,Snow,Snow,120,2013-02-06 14:55:00
9:15 AM,14.0,10.4,86,29.95,0.2,ESE,5.8,-,0.13,Snow,Heavy Snow,120,2013-02-06 15:15:00
9:35 AM,14.0,10.4,86,29.96,0.8,ESE,5.8,-,0.30,Snow,Light Snow,110,2013-02-06 15:35:00
9:55 AM,14.0,10.4,86,29.96,0.5,ESE,5.8,-,0.34,Snow,Snow,120,2013-02-06 15:55:00
10:15 AM,14.0,10.4,86,29.96,0.5,East,6.9,-,0.04,Snow,Snow,100,2013-02-06 16:15:00
10:35 AM,14.0,10.4,86,29.96,0.2,East,6.9,-,0.22,Snow,Heavy Snow,100,2013-02-06 16:35:00
10:55 AM,14.0,10.4,86,29.97,0.8,ESE,5.8,-,0.26,Snow,Light Snow,120,2013-02-06 16:55:00
11:15 AM,14.0,10.4,86,29.97,0.8,ESE,6.9,-,0.01,Snow,Light Snow,110,2013-02-06 17:15:00
11:35 AM,14.0,10.4,86,29.98,0.5,ESE,4.6,-,0.05,Snow,Snow,120,2013-02-06 17:35:00
11:55 AM,14.0,10.4,86,29.98,0.5,ESE,4.6,-,0.15,Snow,Snow,120,2013-02-06 17:55:00
12:15 PM,14.0,10.4,86,29.98,0.5,ESE,4.6,-,0.05,Snow,Snow,110,2013-02-06 18:15:00
12:35 PM,15.8,12.2,86,29.98,0.2,ESE,4.6,-,0.12,Snow,Heavy Snow,110,2013-02-06 18:35:00
12:55 PM,14.0,10.4,86,29.97,1.2,East,6.9,-,0.16,Snow,Light Snow,80,2013-02-06 18:55:00
1:15 PM,14.0,12.2,93,29.98,0.8,NE,5.8,-,0.03,Snow,Light Snow,50,2013-02-06 19:15:00
1:35 PM,15.8,12.2,86,29.98,0.2,NE,8.1,-,0.19,Snow,Heavy Snow,40,2013-02-06 19:35:00
1:55 PM,15.8,12.2,86,29.97,1.2,NE,8.1,-,0.23,Snow,Light Snow,40,2013-02-06 19:55:00
2:15 PM,15.8,12.2,86,29.97,3.0,NNE,10.4,-,N/A,Snow,Light Snow,30,2013-02-06 20:15:00
2:35 PM,15.8,12.2,86,29.98,1.5,NNE,12.7,-,N/A,,Overcast,20,2013-02-06 20:35:00
2:55 PM,15.8,10.4,79,29.98,10.0,North,11.5,16.1,N/A,,Mostly Cloudy,10,2013-02-06 20:55:00
3:35 PM,15.8,10.4,79,30.00,9.0,North,15.0,19.6,N/A,,Mostly Cloudy,10,2013-02-06 21:35:00
3:55 PM,15.8,10.4,79,30.02,10.0,North,10.4,17.3,N/A,,Overcast,10,2013-02-06 21:55:00
4:15 PM,14.0,10.4,86,30.02,10.0,North,11.5,-,N/A,,Overcast,10,2013-02-06 22:15:00
4:35 PM,12.2,8.6,85,30.04,10.0,North,11.5,-,N/A,,Overcast,350,2013-02-06 22:35:00
4:55 PM,12.2,8.6,85,30.04,5.0,North,11.5,-,N/A,,Overcast,360,2013-02-06 22:55:00
5:15 PM,12.2,8.6,85,30.05,10.0,North,15.0,20.7,N/A,Snow,Light Snow,360,2013-02-06 23:15:00
5:35 PM,10.4,8.6,92,30.06,10.0,North,11.5,-,N/A,,Overcast,360,2013-02-06 23:35:00
5:55 PM,10.4,6.8,85,30.08,10.0,North,12.7,-,N/A,Snow,Light Snow,350,2013-02-06 23:55:00
6:15 PM,10.4,6.8,85,30.09,10.0,NNW,12.7,17.3,N/A,,Overcast,340,2013-02-07 00:15:00
6:35 PM,10.4,6.8,85,30.10,10.0,North,12.7,-,N/A,,Overcast,350,2013-02-07 00:35:00
6:55 PM,8.6,6.8,92,30.10,10.0,North,12.7,-,N/A,,Overcast,350,2013-02-07 00:55:00
7:15 PM,8.6,6.8,92,30.11,10.0,NNW,15.0,-,N/A,,Overcast,340,2013-02-07 01:15:00
7:35 PM,8.6,5.0,85,30.12,9.0,NNW,13.8,-,N/A,,Overcast,340,2013-02-07 01:35:00
7:55 PM,8.6,5.0,85,30.13,10.0,NNW,13.8,-,N/A,,Overcast,340,2013-02-07 01:55:00
8:15 PM,8.6,5.0,85,30.13,10.0,NNW,13.8,-,N/A,,Overcast,340,2013-02-07 02:15:00
8:35 PM,8.6,5.0,85,30.15,10.0,NNW,12.7,-,N/A,,Overcast,340,2013-02-07 02:35:00
8:55 PM,8.6,5.0,85,30.15,10.0,NNW,13.8,-,N/A,,Overcast,340,2013-02-07 02:55:00
9:15 PM,6.8,3.2,85,30.15,10.0,NNW,15.0,-,N/A,,Overcast,340,2013-02-07 03:15:00
9:35 PM,6.8,1.4,79,30.16,10.0,NNW,10.4,-,N/A,,Mostly Cloudy,340,2013-02-07 03:35:00
9:55 PM,5.0,1.4,85,30.16,10.0,North,10.4,-,N/A,,Partly Cloudy,350,2013-02-07 03:55:00
10:15 PM,5.0,-0.4,78,30.18,10.0,NNW,11.5,-,N/A,,Clear,340,2013-02-07 04:15:00
10:35 PM,5.0,-0.4,78,30.18,10.0,NNW,12.7,-,N/A,,Clear,340,2013-02-07 04:35:00
10:55 PM,5.0,-0.4,78,30.19,10.0,NNW,11.5,-,N/A,,Clear,340,2013-02-07 04:55:00
11:15 PM,5.0,-0.4,78,30.20,10.0,NNW,11.5,-,N/A,,Mostly Cloudy,330,2013-02-07 05:15:00
11:35 PM,5.0,1.4,85,30.20,10.0,NNW,11.5,-,N/A,,Overcast,340,2013-02-07 05:35:00
11:55 PM,5.0,-0.4,78,30.21,10.0,NNW,11.5,-,N/A,,Overcast,330,2013-02-07 05:55:00